Lid_Strength_Index
7 10 11 14 14 14 13 12 12 12 12 11 11 11 12 12 12 13 13 13 13 13 13 13 13 12 13 13 12 12 13 13 14 13 12 11 11 11 11 10 10 9 8
10 11 13 13 13 12 12 12 12 13 12 11 12 12 13 13 13 13 13 13 13 13 13 13 13 13 13 13 13 13 13 12 13 14 12 12 11 11 11 11 9 8 8
12 13 14 13 13 12 12 12 12 13 12 12 12 13 14 14 14 13 13 13 13 12 12 13 13 13 13 13 12 12 12 12 12 12 13 11 11 10 10 9 9 8 8
14 14 13 12 13 13 13 13 13 12 12 12 13 14 14 14 13 14 13 13 12 12 12 13 13 13 13 13 12 12 12 12 12 12 12 12 11 9 8 9 10 9 9
14 14 13 12 13 13 13 13 12 12 13 14 14 14 14 14 14 13 12 12 12 12 12 12 12 12 12 12 12 12 12 12 12 12 12 11 10 10 10 10 11 10 9
14 14 13 13 14 13 13 13 13 14 14 14 15 14 15 15 15 13 12 12 12 13 13 12 12 12 12 11 11 11 11 12 12 11 11 11 11 11 10 11 11 11 13
13 13 13 14 14 13 13 14 14 14 14 14 14 15 15 14 14 13 12 12 13 13 13 13 13 12 12 12 11 11 10 9 9 9 11 11 11 11 11 11 11 12 12
13 14 13 13 14 14 14 15 15 14 14 15 15 15 14 14 14 13 13 12 12 12 12 12 12 12 12 12 12 11 10 10 9 9 9 10 10 9 10 11 11 11 10
13 14 14 14 15 15 15 15 15 15 15 15 14 15 14 14 14 13 13 13 13 13 12 12 12 12 11 10 11 11 11 10 8 8 8 8 8 9 10 11 12 13 13
14 15 15 14 15 15 15 15 15 15 14 14 15 14 15 14 14 13 13 13 13 13 12 12 11 11 11 10 10 11 11 11 10 10 10 10 10 10 9 10 11 13 13
15 15 15 15 15 15 15 15 14 14 15 14 15 14 14 14 14 13 13 13 13 13 13 13 12 11 10 9 9 10 11 10 10 11 11 11 10 10 10 10 10 11 13
16 16 16 16 15 14 14 14 15 15 15 15 15 14 14 14 14 13 12 12 12 13 13 12 11 10 9 9 10 10 10 10 11 12 12 12 11 11 10 10 10 10 11
16 16 15 14 14 14 15 15 14 15 15 15 15 15 15 14 13 13 12 12 11 12 12 11 10 9 10 11 11 11 11 12 12 13 12 11 11 10 10 10 10 10 10
15 15 15 15 15 15 15 15 15 15 15 15 15 15 15 14 14 13 13 12 12 12 11 10 10 10 11 11 12 12 12 12 12 12 12 11 10 10 11 10 11 11 11
14 14 14 15 15 15 15 15 14 14 14 15 15 15 15 15 14 13 12 13 12 11 11 11 12 13 13 13 13 12 12 12 12 12 12 11 11 11 11 10 11 11 12
15 15 15 15 15 15 15 15 15 15 15 15 14 14 14 13 13 12 12 11 11 10 12 13 14 13 14 14 13 13 12 12 12 12 12 11 12 12 11 11 10 11 12
14 15 15 15 15 15 15 16 16 15 15 15 15 14 14 14 13 13 12 12 11 12 14 14 14 14 14 14 13 13 12 12 11 12 12 12 12 11 12 12 11 11 11
15 15 15 15 15 15 16 16 16 17 17 16 15 15 14 14 13 13 13 12 14 13 14 14 14 14 14 13 13 12 12 12 12 12 12 12 12 12 12 12 11 12 11
15 15 15 15 15 16 16 16 16 16 17 16 16 15 14 14 13 12 12 14 14 15 14 14 14 14 13 13 12 12 12 13 12 12 12 12 12 12 12 12 11 10 10
14 15 16 16 16 17 16 16 17 17 17 16 16 16 15 14 14 14 13 14 14 15 14 14 14 13 13 13 13 13 13 13 13 12 12 12 11 11 11 11 11 11 10
16 16 16 16 17 17 17 17 17 17 17 17 16 15 14 15 15 14 14 14 15 15 14 14 14 13 13 13 13 13 13 13 13 12 12 11 11 11 10 10 10 9 9
16 17 17 17 17 17 16 17 17 17 17 17 16 16 14 14 14 14 14 14 14 14 14 14 13 13 13 13 13 13 13 13 13 12 11 11 11 10 9 9 9 8 9
17 17 17 17 17 17 17 17 17 17 17 16 16 16 15 15 14 15 15 15 14 14 14 14 14 14 13 13 13 13 13 13 12 11 12 11 10 9 8 7 7 9 9
17 17 18 18 18 17 17 17 17 17 17 17 16 15 15 14 15 15 15 14 14 14 14 14 14 14 14 14 13 13 12 12 11 11 10 8 6 6 6 6 7 8 9
17 18 18 18 18 18 18 18 18 17 17 16 16 15 15 15 15 15 15 14 14 14 14 14 14 14 14 14 13 13 12 10 8 7 5 6 6 6 6 7 8 8 9
18 18 18 18 18 18 18 18 18 18 17 16 15 15 15 16 15 15 15 14 14 14 15 14 13 13 13 13 13 12 9 7 6 6 6 6 6 6 6 7 8 9 10